Вернуться в каталог

STARLINK-4514

АктивенСвязьVLEO
NORAD 53551·PAYLOAD·🇺🇸 United States

Запущен Aug 19, 2022 с Cape Canaveral Space Force Station

Loading…

Ближайшие Пролёты (ближайшие 24 часа)

TLE

СвежийSource: CelesTrak SupGP

Эпоха: Sep 15, 2026, 01:31 UTC

1 53551C 22101AA  26258.06368056  .00002333  00000+0  68909-4 0  2586
2 53551  53.1569 283.1147 0001202  97.3472 133.7897 15.34393912    12

Отслеживайте STARLINK-4514 в реальном времени с AllMySat

Download on the App Store